• In Deutschland
  • Länderverzeichnis
  • Für 7 Tage
  • Wassertemperatur
  • Satellitenkarten
  • Wetterkarte
  • Widgets
  • user-avatar
    Anmelden

    Stündliche Wetter Luckenwalde

    Heute, 21 Februar, Mittwoch

    Zeit Temperatur Niederschläge Wind Luftdruck Luftfeuchtigkeit
    00:00 -3°C° 0 mm 2 m/S 762 mmHg 83%
    01:00 -3°C° 0 mm 2 m/S 762 mmHg 84%
    02:00 -4°C° 0 mm 2 m/S 762 mmHg 85%
    03:00 -4°C° 0 mm 2 m/S 762 mmHg 86%
    04:00 -4°C° 0 mm 2 m/S 763 mmHg 87%
    05:00 -4°C° 0 mm 2 m/S 763 mmHg 87%
    06:00 -4°C° 0 mm 2 m/S 763 mmHg 88%
    07:00 -4°C° 0 mm 2 m/S 763 mmHg 88%
    08:00 -3°C° 0 mm 2 m/S 763 mmHg 81%
    09:00 -2°C° 0 mm 3 m/S 764 mmHg 74%
    10:00 0°C° 0 mm 3 m/S 764 mmHg 66%
    11:00 0°C° 0 mm 3 m/S 764 mmHg 61%
    12:00 +1°C° 0 mm 3 m/S 764 mmHg 56%
    13:00 +1°C° 0 mm 4 m/S 764 mmHg 51%
    14:00 +2°C° 0 mm 3 m/S 763 mmHg 52%
    15:00 +2°C° 0 mm 3 m/S 763 mmHg 53%
    16:00 +2°C° 0 mm 3 m/S 763 mmHg 54%
    17:00 +1°C° 0 mm 3 m/S 763 mmHg 59%
    18:00 -1°C° 0 mm 3 m/S 763 mmHg 65%
    19:00 -2°C° 0 mm 2 m/S 764 mmHg 70%
    20:00 -2°C° 0 mm 2 m/S 764 mmHg 71%
    21:00 -3°C° 0 mm 2 m/S 764 mmHg 72%
    22:00 -3°C° 0 mm 2 m/S 764 mmHg 73%
    23:00 -3°C° 0 mm 2 m/S 765 mmHg 73%

    Morgen, 22 Februar, Donnerstag

    Zeit Temperatur Niederschläge Wind Luftdruck Luftfeuchtigkeit
    00:00 -3°C° 0 mm 2 m/S 765 mmHg 74%
    01:00 -4°C° 0 mm 2 m/S 765 mmHg 74%
    02:00 -4°C° 0 mm 2 m/S 765 mmHg 74%
    03:00 -4°C° 0 mm 2 m/S 764 mmHg 74%
    04:00 -2°C° 0 mm 1 m/S 764 mmHg 73%
    05:00 -2°C° 0 mm 1 m/S 764 mmHg 73%
    06:00 -2°C° 0 mm 1 m/S 764 mmHg 73%
    07:00 -2°C° 0 mm 1 m/S 764 mmHg 72%
    08:00 -3°C° 0 mm 2 m/S 764 mmHg 67%
    09:00 -2°C° 0 mm 2 m/S 764 mmHg 61%
    10:00 -1°C° 0 mm 2 m/S 764 mmHg 55%
    11:00 +1°C° 0 mm 2 m/S 764 mmHg 53%
    12:00 +1°C° 0 mm 3 m/S 764 mmHg 51%
    13:00 +1°C° 0 mm 3 m/S 764 mmHg 49%
    14:00 +1°C° 0 mm 3 m/S 763 mmHg 49%
    15:00 +1°C° 0 mm 3 m/S 763 mmHg 49%
    16:00 +1°C° 0 mm 3 m/S 763 mmHg 50%
    17:00 0°C° 0 mm 3 m/S 763 mmHg 55%
    18:00 -2°C° 0 mm 2 m/S 763 mmHg 61%
    19:00 -3°C° 0 mm 2 m/S 763 mmHg 66%
    20:00 -3°C° 0 mm 2 m/S 764 mmHg 67%
    21:00 -4°C° 0 mm 2 m/S 764 mmHg 68%
    22:00 -4°C° 0 mm 2 m/S 764 mmHg 69%
    23:00 -4°C° 0 mm 2 m/S 764 mmHg 68%

    übermorgen, 23 Februar, Freitag

    Zeit Temperatur Niederschläge Wind Luftdruck Luftfeuchtigkeit
    00:00 -4°C° 0 mm 2 m/S 764 mmHg 68%
    01:00 -5°C° 0 mm 2 m/S 764 mmHg 67%
    02:00 -5°C° 0 mm 2 m/S 764 mmHg 65%
    03:00 -5°C° 0 mm 2 m/S 764 mmHg 63%
    04:00 -5°C° 0 mm 2 m/S 764 mmHg 61%
    05:00 -5°C° 0 mm 2 m/S 764 mmHg 59%
    06:00 -7°C° 0 mm 3 m/S 764 mmHg 57%
    07:00 -7°C° 0 mm 3 m/S 764 mmHg 55%
    08:00 -6°C° 0 mm 3 m/S 764 mmHg 51%
    09:00 -5°C° 0 mm 3 m/S 765 mmHg 46%
    10:00 -4°C° 0 mm 4 m/S 765 mmHg 42%
    11:00 -3°C° 0 mm 4 m/S 765 mmHg 39%
    12:00 -2°C° 0 mm 4 m/S 765 mmHg 35%
    13:00 -1°C° 0 mm 4 m/S 765 mmHg 32%
    14:00 -1°C° 0 mm 4 m/S 765 mmHg 32%
    15:00 -1°C° 0 mm 4 m/S 765 mmHg 32%
    16:00 -1°C° 0 mm 4 m/S 765 mmHg 32%
    17:00 -2°C° 0 mm 4 m/S 765 mmHg 36%
    18:00 -2°C° 0 mm 3 m/S 765 mmHg 40%
    19:00 -5°C° 0 mm 3 m/S 765 mmHg 44%
    20:00 -5°C° 0 mm 3 m/S 765 mmHg 45%
    21:00 -5°C° 0 mm 3 m/S 766 mmHg 45%
    22:00 -5°C° 0 mm 3 m/S 766 mmHg 45%
    23:00 -5°C° 0 mm 3 m/S 766 mmHg 45%

    24 Februar, Samstag

    Zeit Temperatur Niederschläge Wind Luftdruck Luftfeuchtigkeit
    00:00 -5°C° 0 mm 3 m/S 766 mmHg 46%
    01:00 -5°C° 0 mm 3 m/S 766 mmHg 46%
    02:00 -5°C° 0 mm 3 m/S 766 mmHg 50%
    03:00 -5°C° 0 mm 3 m/S 766 mmHg 54%
    04:00 -5°C° 0 mm 3 m/S 766 mmHg 57%
    05:00 -5°C° 0 mm 3 m/S 767 mmHg 63%
    06:00 -5°C° 0 mm 4 m/S 767 mmHg 69%
    07:00 -5°C° 0 mm 4 m/S 767 mmHg 75%
    08:00 -4°C° 0 mm 4 m/S 767 mmHg 68%
    09:00 -5°C° 0 mm 5 m/S 768 mmHg 61%
    10:00 -4°C° 0 mm 6 m/S 768 mmHg 53%
    11:00 -3°C° 0 mm 6 m/S 768 mmHg 48%
    12:00 -3°C° 0 mm 6 m/S 768 mmHg 42%
    13:00 -2°C° 0 mm 6 m/S 768 mmHg 36%
    14:00 -2°C° 0 mm 6 m/S 768 mmHg 34%
    15:00 -3°C° 0 mm 6 m/S 767 mmHg 33%
    16:00 -3°C° 0 mm 6 m/S 767 mmHg 32%
    17:00 -4°C° 0 mm 5 m/S 768 mmHg 35%
    18:00 -5°C° 0 mm 5 m/S 768 mmHg 38%
    19:00 -5°C° 0 mm 4 m/S 768 mmHg 41%
    20:00 -5°C° 0 mm 4 m/S 768 mmHg 44%
    21:00 -7°C° 0 mm 4 m/S 769 mmHg 46%
    22:00 -7°C° 0 mm 4 m/S 769 mmHg 49%
    23:00 -7°C° 0 mm 4 m/S 769 mmHg 49%

    25 Februar, Sonntag

    Zeit Temperatur Niederschläge Wind Luftdruck Luftfeuchtigkeit
    00:00 -7°C° 0 mm 4 m/S 769 mmHg 48%
    01:00 -8°C° 0 mm 4 m/S 769 mmHg 48%
    02:00 -8°C° 0 mm 4 m/S 769 mmHg 48%
    03:00 -9°C° 0 mm 4 m/S 769 mmHg 48%
    04:00 -9°C° 0 mm 4 m/S 769 mmHg 47%
    05:00 -9°C° 0 mm 4 m/S 769 mmHg 48%
    06:00 -8°C° 0 mm 3 m/S 769 mmHg 48%
    07:00 -9°C° 0 mm 3 m/S 769 mmHg 49%
    08:00 -9°C° 0 mm 4 m/S 770 mmHg 46%
    09:00 -8°C° 0 mm 4 m/S 770 mmHg 43%
    10:00 -7°C° 0 mm 4 m/S 770 mmHg 40%
    11:00 -7°C° 0 mm 4 m/S 769 mmHg 39%
    12:00 -5°C° 0 mm 4 m/S 769 mmHg 37%
    13:00 -4°C° 0 mm 4 m/S 769 mmHg 36%
    14:00 -5°C° 0 mm 4 m/S 769 mmHg 35%
    15:00 -5°C° 0 mm 4 m/S 769 mmHg 35%
    16:00 -5°C° 0 mm 4 m/S 768 mmHg 34%
    17:00 -5°C° 0 mm 4 m/S 768 mmHg 36%
    18:00 -6°C° 0 mm 3 m/S 769 mmHg 38%
    19:00 -7°C° 0 mm 3 m/S 769 mmHg 41%
    20:00 -7°C° 0 mm 3 m/S 769 mmHg 41%
    21:00 -6°C° 0 mm 2 m/S 769 mmHg 42%
    22:00 -7°C° 0 mm 2 m/S 769 mmHg 43%
    23:00 -7°C° 0 mm 2 m/S 769 mmHg 44%

    26 Februar, Montag

    Zeit Temperatur Niederschläge Wind Luftdruck Luftfeuchtigkeit
    00:00 -7°C° 0 mm 2 m/S 769 mmHg 45%
    01:00 -8°C° 0 mm 2 m/S 769 mmHg 46%
    02:00 -8°C° 0 mm 2 m/S 769 mmHg 47%
    03:00 -8°C° 0 mm 2 m/S 768 mmHg 48%
    04:00 -8°C° 0 mm 2 m/S 768 mmHg 50%
    05:00 -9°C° 0 mm 2 m/S 768 mmHg 51%
    06:00 -9°C° 0 mm 2 m/S 768 mmHg 53%
    07:00 -9°C° 0 mm 2 m/S 768 mmHg 54%
    08:00 -8°C° 0 mm 2 m/S 768 mmHg 50%
    09:00 -8°C° 0 mm 3 m/S 768 mmHg 47%
    10:00 -7°C° 0 mm 3 m/S 768 mmHg 43%
    11:00 -7°C° 0 mm 3 m/S 768 mmHg 40%
    12:00 -7°C° 0 mm 4 m/S 767 mmHg 36%
    13:00 -5°C° 0 mm 4 m/S 767 mmHg 33%
    14:00 -5°C° 0 mm 4 m/S 766 mmHg 33%
    15:00 -5°C° 0 mm 4 m/S 766 mmHg 33%
    16:00 -5°C° 0 mm 4 m/S 766 mmHg 33%
    17:00 -6°C° 0 mm 3 m/S 766 mmHg 37%
    18:00 -7°C° 0 mm 3 m/S 766 mmHg 40%
    19:00 -6°C° 0 mm 2 m/S 766 mmHg 43%
    20:00 -7°C° 0 mm 2 m/S 765 mmHg 45%
    21:00 -7°C° 0 mm 2 m/S 765 mmHg 46%
    22:00 -7°C° 0 mm 2 m/S 765 mmHg 48%
    23:00 -6°C° 0 mm 1 m/S 765 mmHg 50%
    Mehr zeigen